Preview of NWS' New Version of Forecast
This preview is not operational and should not be used for support decisions.

Regional Weather Roundup (RWR)

Issued by National Weather Service (NWS)

                            
000
ASUS43 KTOP 250359
RWRKS 

WEATHER ROUNDUP FOR KANSAS
NATIONAL WEATHER SERVICE GOODLAND KS
1100 PM CDT SAT AUG 24 2019

NOTE:  "FAIR" INDICATES FEW OR NO CLOUDS BELOW 12,000 FEET WITH NO
SIGNIFICANT WEATHER AND/OR OBSTRUCTIONS TO VISIBILITY.

KSZ001>006-013>018-027>032-041>047-250500-
NORTHWEST KANSAS
  
CITY           SKY/WX    TMP DP  RH WIND       PRES   REMARKS
GOODLAND       PTCLDY    65  64  97 E3        29.96S                  
HAYS           PTCLDY    70  69  97 SE8       29.73F                  
HILL CITY      MOCLDY    66  63  90 W6        29.91F                  
RUSSELL        PTCLDY    69  64  84 E16       29.92F                  
$$

KSZ061>065-074>080-084>089-250500-
SOUTHWEST KANSAS
  
CITY           SKY/WX    TMP DP  RH WIND       PRES   REMARKS
DODGE CITY     CLEAR     74  69  85 SE14      29.93F                  
GARDEN CITY    CLEAR     73  68  84 S9        29.93S                  
GREAT BEND     CLEAR     73  70  90 SE12      29.93F                  
LIBERAL        CLEAR     76  67  73 SE7       29.96R                  
$$

KSZ066>073-081>083-090>101-250500-
SOUTHEAST KANSAS
  
CITY           SKY/WX    TMP DP  RH WIND       PRES   REMARKS
CHANUTE        CLOUDY    72  67  84 E6        30.01R                  
COFFEYVILLE    MOCLDY    73  70  90 E6        29.97R                  
HUTCHINSON     MOCLDY    74  69  85 E10       29.94S                  
MEDICINE LODGE   N/A     76  71  85 E6        29.91S                  
NEWTON         CLOUDY    69  67  93 SE17      29.96F                  
PARSONS        PTCLDY    71  69  93 VRB5      30.00R                  
WICHITA INTL   CLOUDY    74  70  87 E13G23    29.95S                  
WICHITA JABRA  CLOUDY    71  69  93 E12G20    29.96S                  
WICHITA MCCONL CLOUDY    73  67  83 E13       29.96S                  
WINFIELD       MOCLDY    74  71  91 E10       29.96S                  
$$

KSZ007>012-019>026-033>040-048>060-102>105-250500-
NORTHEAST KANSAS
  
CITY           SKY/WX    TMP DP  RH WIND       PRES   REMARKS
CONCORDIA      LGT RAIN  69  67  93 SE14G22   29.96F                  
EMPORIA        CLOUDY    69  67  93 E12       29.99F                  
LAWRENCE       CLOUDY    70  64  81 E5        30.03S                  
MANHATTAN      CLOUDY    70  65  84 E5        30.01F                  
OLATHE IND     CLOUDY    69  62  78 E6        30.04S                  
OLATHE EXE     CLOUDY    69  62  78 E7        30.04S                  
SALINA         CLOUDY    70  66  87 E13       29.99S THUNDER          
TOPEKA BILLARD CLOUDY    69  62  78 E5        30.02F                  
TOPEKA FORBES  CLOUDY    69  62  78 SE8       30.02F                  
$$